Weather History for Robinson, IL

Change the Weather History Date:

Monday, November 19, 2012

  Actual Average (KLWV) Record (KLWV)
Temperature  
Mean Temperature 46 °F 45 °F  
Max Temperature 61 °F 54 °F 69 °F (2007)
Min Temperature 32 °F 36 °F 23 °F (2000)
Degree Days  
Heating Degree Days 18 20  
Month to date heating degree days 310  
Since 1 July heating degree days 607  
Cooling Degree Days 0 0  
Month to date cooling degree days 0  
Year to date cooling degree days 1386  
Moisture  
Dew Point 38 °F    
Average Humidity 76    
Maximum Humidity 100    
Minimum Humidity 42    
Precipitation  
Precipitation 0.00 in 0.14 in 1.70 in (1985)
Month to date precipitation 2.42  
Year to date precipitation 38.94  
Sea Level Pressure  
Sea Level Pressure 30.27 in    
Wind  
Wind Speed 1 mph (SSE)    
Max Wind Speed 7 mph    
Max Gust Speed -    
Visibility 10 miles    
Events      
T = Trace of Precipitation, MM = Missing Value Source: NWS Daily Summary

Daily Weather History Graph

Daily Weather History Graph

Search for Another Location

Airport:

Trip Planner

Search our weather history database for the weather conditions in past years. The results will help you decide how hot, cold, wet, or windy it might be!

Date:

Astronomy

Nov. 19, 2012 Rise Set
Actual Time 6:38 AM CST 4:33 PM CST
Civil Twilight 6:09 AM CST 5:02 PM CST
Nautical Twilight 5:37 AM CST 5:34 PM CST
Astronomical Twilight 5:05 AM CST 6:06 PM CST
Moon 11:42 AM CST (11/19) 10:58 PM CST (11/19)
Length of Visible Light 10h 52m
Length of Day
9h 54m
Waxing Crescent, 41% of the Moon is Illuminated
Nov 19
Waxing Crescent
Nov 20
First Quarter
Nov 28
Full
Dec 6
Last Quarter
Dec 13
New

Hourly Weather History & Observations

Time (CST) Temp. Windchill Dew Point Humidity Pressure Visibility Wind Dir Wind Speed Gust Speed Precip Events Conditions
12:15 AM 34.2 °F - 34.2 °F 100% 30.35 in 10.0 mi Calm Calm - N/A   Clear
12:35 AM 34.2 °F - 33.8 °F 99% 30.35 in 10.0 mi Calm Calm - N/A   Clear
12:55 AM 34.0 °F - 33.8 °F 99% 30.35 in 10.0 mi Calm Calm - N/A   Clear
1:15 AM 32.9 °F - 32.7 °F 99% 30.35 in 10.0 mi Calm Calm - N/A   Clear
1:35 AM 35.1 °F - 34.3 °F 97% 30.35 in 10.0 mi Calm Calm - N/A   Clear
1:55 AM 35.1 °F - 35.1 °F 100% 30.35 in 10.0 mi Calm Calm - N/A   Clear
2:15 AM 34.3 °F - 34.3 °F 100% 30.34 in 10.0 mi Calm Calm - N/A   Clear
2:35 AM 34.3 °F - 34.3 °F 100% 30.34 in 10.0 mi Calm Calm - N/A   Clear
2:55 AM 34.3 °F - 34.3 °F 100% 30.34 in 10.0 mi Calm Calm - N/A   Clear
3:15 AM 33.6 °F - 33.6 °F 100% 30.33 in 10.0 mi Calm Calm - N/A   Clear
3:35 AM 33.8 °F - 33.8 °F 100% 30.33 in 10.0 mi Calm Calm - N/A   Clear
3:55 AM 32.9 °F - 32.9 °F 100% 30.33 in 10.0 mi Calm Calm - N/A   Clear
4:15 AM 33.1 °F - 33.1 °F 100% 30.33 in 10.0 mi Calm Calm - N/A   Clear
4:35 AM 33.3 °F - 33.3 °F 100% 30.34 in 10.0 mi Calm Calm - N/A   Clear
4:55 AM 33.4 °F - 33.4 °F 100% 30.34 in 7.0 mi Calm Calm - N/A   Clear
5:15 AM 33.4 °F - 33.4 °F 100% 30.34 in 10.0 mi Calm Calm - N/A   Clear
5:35 AM 34.2 °F - 34.2 °F 100% 30.33 in 10.0 mi Calm Calm - N/A   Clear
5:55 AM 33.8 °F - 33.8 °F 100% 30.33 in 10.0 mi Calm Calm - N/A   Clear
6:15 AM 33.6 °F - 33.6 °F 100% 30.33 in 10.0 mi Calm Calm - N/A   Clear
6:35 AM 33.8 °F - 33.8 °F 100% 30.33 in 10.0 mi Calm Calm - N/A   Clear
6:55 AM 32.9 °F - 32.9 °F 100% 30.33 in 7.0 mi Calm Calm - N/A   Clear
7:15 AM 34.7 °F - 34.7 °F 100% 30.34 in 10.0 mi Calm Calm - N/A   Clear
7:35 AM 36.1 °F - 36.1 °F 100% 30.34 in 10.0 mi Calm Calm - N/A   Clear
7:55 AM 38.7 °F - 38.5 °F 99% 30.34 in 10.0 mi Calm Calm - N/A   Clear
8:15 AM 39.6 °F - 38.7 °F 97% 30.34 in 10.0 mi Calm Calm - N/A   Clear
8:55 AM 43.5 °F - 40.1 °F 88% 30.34 in 10.0 mi Calm Calm - N/A   Clear
9:15 AM 45.5 °F - 38.1 °F 75% 30.34 in 10.0 mi Calm Calm - N/A   Clear
9:35 AM 47.5 °F - 40.8 °F 78% 30.34 in 10.0 mi Calm Calm - N/A   Clear
9:55 AM 49.3 °F - 40.8 °F 73% 30.34 in 10.0 mi Calm Calm - N/A   Clear
10:15 AM 51.8 °F - 41.4 °F 68% 30.34 in 10.0 mi Calm Calm - N/A   Clear
10:35 AM 55.6 °F - 41.2 °F 58% 30.33 in 10.0 mi Calm Calm - N/A   Clear
10:55 AM 56.1 °F - 38.8 °F 52% 30.31 in 10.0 mi Calm Calm - N/A   Clear
11:15 AM 57.9 °F - 38.8 °F 49% 30.30 in 10.0 mi Calm Calm - N/A   Scattered Clouds
11:35 AM 58.8 °F - 39.4 °F 49% 30.29 in 10.0 mi Calm Calm - N/A   Scattered Clouds
11:55 AM 60.4 °F - 39.2 °F 45% 30.27 in 10.0 mi Calm Calm - N/A   Clear
12:15 PM 60.6 °F - 37.9 °F 43% 30.27 in 10.0 mi South 6.9 mph - N/A   Clear
12:35 PM 59.9 °F - 38.3 °F 45% 30.26 in 10.0 mi South 3.5 mph - N/A   Clear
12:55 PM 60.6 °F - 38.5 °F 44% 30.26 in 10.0 mi Calm Calm - N/A   Clear
1:15 PM 61.3 °F - 38.5 °F 43% 30.25 in 10.0 mi SSE 4.6 mph - N/A   Scattered Clouds
1:35 PM 61.7 °F - 38.7 °F 43% 30.25 in 10.0 mi SE 3.5 mph - N/A   Clear
1:55 PM 61.9 °F - 39.0 °F 43% 30.24 in 10.0 mi SE 3.5 mph - N/A   Clear
2:15 PM 61.7 °F - 38.1 °F 42% 30.24 in 10.0 mi South 4.6 mph - N/A   Clear
2:35 PM 61.7 °F - 38.1 °F 42% 30.24 in 10.0 mi South 3.5 mph - N/A   Clear
2:55 PM 60.6 °F - 40.6 °F 48% 30.22 in 10.0 mi SE 3.5 mph - N/A   Clear
3:15 PM 59.7 °F - 42.8 °F 54% 30.22 in 10.0 mi Calm Calm - N/A   Scattered Clouds
3:35 PM 59.4 °F - 43.7 °F 56% 30.22 in 10.0 mi Calm Calm - N/A   Scattered Clouds
3:55 PM 59.2 °F - 42.4 °F 54% 30.22 in 10.0 mi SE 3.5 mph - N/A   Scattered Clouds
4:15 PM 58.1 °F - 41.7 °F 54% 30.22 in 10.0 mi Calm Calm - N/A   Scattered Clouds
4:35 PM 56.8 °F - 41.7 °F 57% 30.21 in 10.0 mi Calm Calm - N/A   Mostly Cloudy
4:55 PM 55.2 °F - 41.9 °F 61% 30.21 in 10.0 mi Calm Calm - N/A   Overcast
5:15 PM 52.2 °F - 41.7 °F 68% 30.22 in 10.0 mi Calm Calm - N/A   Mostly Cloudy
5:35 PM 51.8 °F - 41.9 °F 69% 30.22 in 10.0 mi Calm Calm - N/A   Overcast
5:55 PM 51.8 °F - 42.3 °F 70% 30.22 in 10.0 mi SE 4.6 mph - N/A   Overcast
6:15 PM 52.2 °F - 42.3 °F 69% 30.21 in 10.0 mi SE 5.8 mph - N/A   Mostly Cloudy
6:35 PM 52.0 °F - 41.9 °F 69% 30.21 in 10.0 mi SE 5.8 mph - N/A   Overcast
6:55 PM 52.9 °F - 41.2 °F 64% 30.20 in 10.0 mi SE 4.6 mph - N/A   Overcast
7:15 PM 51.1 °F - 41.0 °F 68% 30.20 in 10.0 mi SSE 3.5 mph - N/A   Overcast
7:35 PM 49.3 °F - 40.6 °F 72% 30.20 in 10.0 mi SE 3.5 mph - N/A   Mostly Cloudy
7:55 PM 50.0 °F - 41.2 °F 72% 30.19 in 10.0 mi SE 4.6 mph - N/A   Overcast
8:15 PM 51.6 °F - 41.5 °F 68% 30.19 in 10.0 mi SE 5.8 mph - N/A   Overcast
8:55 PM 50.2 °F - 41.4 °F 72% 30.19 in 10.0 mi Calm Calm - N/A   Overcast
9:15 PM 50.5 °F - 41.2 °F 70% 30.19 in 10.0 mi Calm Calm - N/A   Overcast
9:35 PM 50.9 °F - 41.2 °F 69% 30.18 in 10.0 mi Calm Calm - N/A   Overcast
9:55 PM 50.4 °F - 42.4 °F 74% 30.18 in 10.0 mi Calm Calm - N/A   Mostly Cloudy
10:15 PM 49.6 °F - 41.9 °F 75% 30.18 in 10.0 mi SSE 3.5 mph - N/A   Mostly Cloudy
10:35 PM 50.5 °F - 40.6 °F 69% 30.18 in 10.0 mi Calm Calm - N/A   Overcast
10:55 PM 49.1 °F - 40.8 °F 73% 30.17 in 10.0 mi SE 3.5 mph - N/A   Overcast
11:15 PM 45.3 °F 43.0 °F 40.1 °F 82% 30.17 in 10.0 mi SSE 4.6 mph - N/A   Mostly Cloudy
11:35 PM 45.5 °F 44.2 °F 38.7 °F 77% 30.17 in 10.0 mi South 3.5 mph - N/A   Scattered Clouds
11:55 PM 45.0 °F 42.6 °F 40.5 °F 84% 30.16 in 10.0 mi SSE 4.6 mph - N/A   Mostly Cloudy